Aérodrome :
LOGIN :

S'inscrire | Disclaimer

   EN    FR    IT 

 










Légende :    VFR   VFR Marginal   IFR   IFR Intensif   IFR Très Intensif
Visi : 
Plafond : 
>= 8 km
>= 3000ft
5 à 8 km
1000 à 3000 ft
1500m à 5 km
500 à 1000 ft
800 à 1500m
200 à 500 ft
< 800m
< 200 ft
Symboles :   Orages  Brouillard  Fortes neiges  Fortes précipitations  Vent > 20 kt
SIGMETs :   Divers  Orages  Givrage  Turbulence  Onde Orograph.  Cendres Volcan.






- Altitude de l'aérodrome : 23 ft
- Code IATA : XFW


EDHI - Hamburg Finkenwerder

DERNIER METAR :
  • 291650Z 01005KT 290V040 CAVOK 21/03 Q1026

METARs EXPIRÉS :
  • 291620Z 26006KT 220V300 CAVOK 21/04 Q1027
  • 291550Z 26006KT CAVOK 21/05 Q1027
  • 291520Z 28006KT 230V320 CAVOK 21/03 Q1027
  • 291450Z VRB02KT CAVOK 21/04 Q1027
  • 291420Z 31009KT 270V340 CAVOK 21/04 Q1028

TAF TAF EDHI
Valide du 29 à 15h jusqu'au 29 à 21h UTC


291400Z 2915/2921 VRB03KT CAVOK
TEMPO 2915/2921 06007KT



MET'MAP, la Météo Aéronautique d'un coup d'oeil ! - Copyright ORBIFLY Décembre 2007 - Disclaimer

ORBIFLY MET'MAP TEAM :

Programmation & Développement : Alexandra Zaïnal
Sur une idée originale de : Baudouin d'Aumeries
Assistance à la programmation : Marc-Olivier Méhu
Soutien technique & logistique : Manuel Goepfert

Contact : metmap@orbifly.com




SOURCES & CREDITS :

   NOAA